Regional Weather Roundup
Issued by NWS Binghamton, NY

Home | Current Version | Previous Version | Text Only | Print | Product List | Glossary On
Versions: 1 2 3 4 5 6 7 8 9 10 11 12 13 14 15 16 17 18 19 20 21 22 23 24 25 26 27
000
ASUS41 KBGM 260410
RWRBGM

REGIONAL WEATHER ROUNDUP
NATIONAL WEATHER SERVICE BINGHAMTON NY
1200 AM EDT FRI AUG 26 2016

Note: "fair" indicates few or no clouds below 12,000 feet with no
significant weather and/or obstructions to visibility.

* = Station(s) that does not report precipitation, such as rain,
snow, etc, also no thunder or fog.

NYZ009-015>018-022>025-036-037-044>046-055>057-062-260500
...Central New York...

CITY           SKY/WX    TMP DP  RH WIND       PRES   REMARKS
Binghamton     MOCLDY    72  70  93 S6        30.00F
Cortland       LGT RAIN  72  70  94 SW6       29.99R
Dansville      CLOUDY    73  71  93 SE7       29.96F
Elmira         CLOUDY    72  70  93 W3        29.95F
Ithaca         CLOUDY    71  70  96 E5        29.98F
Hamilton       CLOUDY    73  70  88 SE3       29.98S
Hornell        CLOUDY    72  70  94 CALM      30.02F
Monticello     MOCLDY    66  64  94 CALM      30.05S VSB 1
Norwich        CLOUDY    72  70  94 CALM      29.98F
Oneonta        CLEAR     70  70 100 SW3       30.02S
Penn Yan       LGT RAIN  73  70  90 S9        29.97S
Rome           CLOUDY    73  72  96 E5        29.94F
Sidney         RAIN      70  70 100 CALM      29.99S
Syracuse       CLOUDY    74  72  93 SE5       29.91F
$$

PAZ038>040-043-044-047-048-072-260500
...Northeast Pennsylvania...

CITY           SKY/WX    TMP DP  RH WIND       PRES   REMARKS
Hazleton       CLEAR     73  72  94 CALM      30.08F
Scranton       CLEAR     74  71  91 CALM      30.00F
$$
&&
KEY
WCI = Wind Chill Index
VSB = Visibility
HX  = Heat Index
$$




USA.gov is the U.S. government's official web portal to all federal, state and local government web resources and services.